Tracking 31027 objects as of 19-Jul-2025
HD Live streaming from Space Station
objects crossing your sky now

OPS 6431

Track OPS 6431 now!
10-day predictions
OPS 6431 is classified as:


NORAD ID: 8818
Int'l Code: 1976-038A
Perigee: 642.7 km
Apogee: 1,218.7 km
Inclination: 63.4 °
Period: 103.5 minutes
Semi major axis: 7301 km
RCS: Unknown
Launch date: April 30, 1976
Source: United States (US)
Launch site: AIR FORCE WESTERN TEST RANGE (AFWTR)
Your satellite tracking list
STARLINK-31879
Track 1 satellite(s)




NASA's NSSDC Master Catalog

Two Line Element Set (TLE):
1 08818U 76038A   25199.46407955  .00000173  00000-0  12089-3 0  9999
2 08818  63.3546 288.1862 0394419 177.9857 182.2900 13.91447840 60787
Source of the keplerian elements: McCants